Location: Bowden
(51.9167°N, 114.0333°W)
Time: 11:22:42
(UTC+00:00)

Envisat - Visible Passes

Search period start: 05 December 2021 00:00
Search period end: 15 December 2021 00:00
Orbit: 764 x 766 km, 98.2° (Epoch: 04 December)

Date Brightness Start Highest point End Pass type
(mag) Time Alt. Az. Time Alt. Az. Time Alt. Az.
05 Dec 6.0 01:15:16 10° WSW 01:18:04 15° W 01:20:53 10° NW visible
05 Dec 5.3 11:36:59 10° NE 11:40:57 22° E 11:44:53 10° SE visible
05 Dec 2.9 13:15:22 10° N 13:20:24 63° WNW 13:25:25 10° SSW visible
06 Dec 5.2 00:36:24 10° SSW 00:40:44 28° W 00:45:08 10° NNW visible
06 Dec 6.1 11:02:05 10° ENE 11:03:33 11° E 11:05:01 10° E visible
06 Dec 3.2 12:38:27 10° NNE 12:43:33 68° ESE 12:48:36 10° S visible
06 Dec 4.1 14:18:12 10° N 14:22:08 23° WNW 14:26:04 10° WSW visible
06 Dec 3.9 23:58:39 10° S 00:03:38 55° W 00:08:39 10° NNW visible
07 Dec 4.5 12:01:50 10° NNE 12:06:30 35° E 12:11:07 10° SSE visible
07 Dec 3.3 13:40:51 10° N 13:45:35 41° WNW 13:50:19 10° SW visible
08 Dec 5.8 01:02:55 10° SW 01:06:21 18° W 01:09:49 10° NW visible
08 Dec 5.5 11:25:46 10° NE 11:29:15 18° E 11:32:43 10° SE visible
08 Dec 2.8 13:03:46 10° NNE 13:08:52 77° WNW 13:13:56 10° SSW visible
08 Dec 4.5 14:44:08 10° NNW 14:47:07 16° NW 14:50:04 10° W visible
09 Dec 4.9 00:24:29 10° SSW 00:29:05 34° W 00:33:44 10° NNW visible
09 Dec 3.6 12:26:56 10° NNE 12:31:57 56° E 12:36:56 10° S visible
09 Dec 3.8 14:06:28 10° N 14:10:42 27° WNW 14:14:55 10° WSW visible
10 Dec 6.2 01:30:42 10° W 01:32:04 11° W 01:33:24 10° WNW visible
10 Dec 4.8 11:50:26 10° NNE 11:54:51 29° E 11:59:13 10° SSE visible
10 Dec 3.1 13:29:12 10° N 13:34:06 49° WNW 13:38:58 10° SW visible
11 Dec 5.6 00:50:44 10° SW 00:54:39 22° W 00:58:35 10° NW visible
11 Dec 5.8 11:14:40 10° NE 11:17:32 15° E 11:20:22 10° ESE visible
11 Dec 2.9 12:52:11 10° NNE 12:57:19 88° ESE 13:02:24 10° SSW visible
11 Dec 4.3 14:32:16 10° NNW 14:35:42 19° NW 14:39:09 10° W visible
12 Dec 4.5 00:12:39 10° SSW 00:17:27 42° W 00:22:18 10° NNW visible
12 Dec 4.0 12:15:27 10° NNE 12:20:20 45° E 12:25:12 10° S visible
12 Dec 3.6 13:54:45 10° N 13:59:14 32° WNW 14:03:42 10° SW visible
13 Dec 6.0 01:17:45 10° WSW 01:20:18 14° W 01:22:53 10° NW visible
13 Dec 5.1 11:39:06 10° NE 11:43:10 24° E 11:47:13 10° SE visible
13 Dec 2.9 13:17:34 10° N 13:22:35 60° WNW 13:27:34 10° SSW visible
13 Dec 4.7 14:58:28 10° NNW 15:00:38 13° NW 15:02:47 10° WNW visible
14 Dec 5.3 00:38:42 10° SSW 00:42:58 27° W 00:47:16 10° NW visible
14 Dec 6.0 11:03:53 10° ENE 11:05:47 12° E 11:07:42 10° ESE visible
14 Dec 3.1 12:40:38 10° NNE 12:45:44 73° ESE 12:50:49 10° S visible
14 Dec 4.1 14:20:27 10° N 14:24:17 22° WNW 14:28:06 10° WSW visible
